Weather History for Sussex, NJ

Change the Weather History Date:

Monday, November 7, 2011

  Actual Average Record
Temperature  
Mean Temperature 46 °F -  
Max Temperature 63 °F 52 °F 73 °F (1948)
Min Temperature 28 °F 30 °F 18 °F (1967)
Degree Days  
Heating Degree Days 20    
Moisture  
Dew Point 36 °F    
Average Humidity 75    
Maximum Humidity 96    
Minimum Humidity 45    
Precipitation  
Precipitation 0.00 in - - ()
Sea Level Pressure  
Sea Level Pressure 30.31 in    
Wind  
Wind Speed 2 mph (SW)    
Max Wind Speed 7 mph    
Max Gust Speed -    
Visibility 9 miles    
Events      
Averages and records for this station are not official NWS values.
T = Trace of Precipitation, MM = Missing Value Source: NWS Daily Summary

Daily Weather History Graph

Daily Weather History Graph

Search for Another Location

Airport:

Trip Planner

Search our weather history database for the weather conditions in past years. The results will help you decide how hot, cold, wet, or windy it might be!

Date:

Astronomy

Nov. 07, 2011 Rise Set
Actual Time 6:36 AM EST 4:47 PM EST
Civil Twilight 6:07 AM EST 5:16 PM EST
Nautical Twilight 5:34 AM EST 5:49 PM EST
Astronomical Twilight 5:02 AM EST 6:21 PM EST
Moon 2:58 PM EST (11/7) 3:35 AM EST (11/7)
Length of Visible Light 11h 08m
Length of Day
10h 10m
Waxing Gibbous, 91% of the Moon is Illuminated
Nov 7
Waxing Gibbous
Nov 10
Full
Nov 18
Last Quarter
Nov 25
New
Dec 2
First Quarter

Hourly Weather History & Observations

Time (EST) Temp. Windchill Dew Point Humidity Pressure Visibility Wind Dir Wind Speed Gust Speed Precip Events Conditions
12:53 AM 28.9 °F - 27.0 °F 92% 30.38 in 9.0 mi Calm Calm - N/A   Clear
1:53 AM 28.0 °F - 27.0 °F 96% 30.36 in 9.0 mi Calm Calm - N/A   Clear
3:53 AM 30.0 °F - 28.0 °F 92% 30.35 in 7.0 mi Calm Calm - N/A   Clear
4:53 AM 28.9 °F - 27.0 °F 92% 30.36 in 6.0 mi Calm Calm - N/A   Clear
5:53 AM 28.0 °F 24.2 °F 26.1 °F 92% 30.35 in 6.0 mi SSW 3.5 mph - N/A   Clear
6:53 AM 28.0 °F - 25.0 °F 88% 30.36 in 5.0 mi North - - N/A   Clear
8:53 AM 39.9 °F 36.7 °F 37.0 °F 89% 30.35 in 7.0 mi SSW 4.6 mph - N/A   Clear
9:53 AM 46.9 °F - 39.9 °F 77% 30.33 in 10.0 mi SSW 5.8 mph - N/A   Clear
10:53 AM 53.1 °F - 41.0 °F 64% 30.32 in 10.0 mi WSW 5.8 mph - N/A   Clear
11:53 AM 57.0 °F - 39.9 °F 53% 30.30 in 10.0 mi Variable 3.5 mph - N/A   Clear
12:53 PM 61.0 °F - 41.0 °F 48% 30.28 in 10.0 mi Variable 5.8 mph - N/A   Clear
1:53 PM 63.0 °F - 41.0 °F 45% 30.26 in 10.0 mi SW 4.6 mph - N/A   Clear
2:53 PM 63.0 °F - 41.0 °F 45% 30.25 in 10.0 mi SSW 6.9 mph - N/A   Clear
3:53 PM 62.1 °F - 41.0 °F 46% 30.25 in 10.0 mi SW 3.5 mph - N/A   Clear
4:53 PM 57.9 °F - 42.1 °F 56% 30.25 in 10.0 mi Calm Calm - N/A   Clear
6:53 PM 48.0 °F - 41.0 °F 77% 30.27 in 10.0 mi Calm Calm - N/A   Clear
7:53 PM 45.0 °F - 39.9 °F 82% 30.28 in 10.0 mi Calm Calm - N/A   Clear
9:53 PM 42.1 °F - 39.0 °F 89% 30.28 in 10.0 mi Calm Calm - N/A   Clear
10:53 PM 39.9 °F - 37.9 °F 93% 30.27 in 10.0 mi Calm Calm - N/A   Clear
11:53 PM 39.9 °F - 37.9 °F 93% 30.28 in 10.0 mi Calm Calm - N/A   Clear